Casa Grande, AZ

12:33 PM MST on November 20, 2019 (GMT -0700)
Casa Grande Municipal

Weather History for KCGZ - October, 2019

Change the Weather History Date:

Wednesday, October 23, 2019

  Actual Average Record
Temperature  
Mean Temperature 72 °F -  
Max Temperature 89 °F 79 °F 96 °F (2003)
Min Temperature 55 °F 52 °F 39 °F (1996)
Cooling Degree Days 7    
Growing Degree Days 22 (Base 50)    
Moisture  
Dew Point 27 °F    
Average Humidity 21    
Maximum Humidity 30    
Minimum Humidity 12    
Precipitation  
Precipitation 0.00 in - - ()
Sea Level Pressure  
Sea Level Pressure 29.88 in    
Wind  
Wind Speed 3 mph ()    
Max Wind Speed 9 mph    
Max Gust Speed -    
Visibility 10.0 miles    
Events      
Averages and records for this station are not official NWS values.
T = Trace of Precipitation, MM = Missing Value Source: Averaged Metar Reports

Daily Weather History Graph

Daily Weather History Graph

Search for Another Location

Airport or City:

Astronomy

Oct. 23, 2019 Rise Set
Actual Time 6:37 AM MST 5:44 PM MST
Civil Twilight 6:12 AM MST 6:10 PM MST
Nautical Twilight 5:43 AM MST 6:38 PM MST
Astronomical Twilight 5:14 AM MST 7:07 PM MST
Moon 1:23 AM MST (10/23) 3:17 PM MST (10/23)
Length of Visible Light 11h 57m
Length of Day
11h 07m
Waning Crescent, 25% of the Moon is Illuminated
Oct 23
Waning Crescent
Oct 27
New
Nov 4
First Quarter
Nov 12
Full
Nov 19
Last Quarter

Hourly Weather History & Observations

Time (MST) Temp. Dew Point Humidity Pressure Visibility Wind Dir Wind Speed Gust Speed Precip Events Conditions
12:56 AM 57.9 °F 23.0 °F 26% 29.94 in 10.0 mi NNE 4.6 mph - N/A   Clear
1:56 AM 57.0 °F 24.1 °F 28% 29.93 in 10.0 mi Calm Calm - N/A   Clear
2:56 AM 57.0 °F 21.9 °F 26% 29.91 in 10.0 mi Calm Calm - N/A   Clear
3:56 AM 55.9 °F 25.0 °F 30% 29.90 in 10.0 mi NE 3.5 mph - N/A   Clear
4:56 AM 55.0 °F 23.0 °F 29% 29.91 in 10.0 mi NE 5.8 mph - N/A   Clear
5:56 AM 55.0 °F 24.1 °F 30% 29.92 in 10.0 mi NE 6.9 mph - N/A   Clear
6:56 AM 55.9 °F 25.0 °F 30% 29.93 in 10.0 mi East 5.8 mph - N/A   Clear
7:56 AM 61.0 °F 27.0 °F 27% 29.94 in 10.0 mi East 4.6 mph - N/A   Clear
8:56 AM 68.0 °F 28.0 °F 22% 29.95 in 10.0 mi ESE 5.8 mph - N/A   Clear
9:56 AM 73.0 °F 28.9 °F 20% 29.95 in 10.0 mi Variable 5.8 mph - N/A   Clear
10:56 AM 78.1 °F 28.0 °F 16% 29.93 in 10.0 mi ENE 4.6 mph - N/A   Clear
11:56 AM 82.0 °F 28.0 °F 14% 29.90 in 10.0 mi SE 5.8 mph - N/A   Clear
12:56 PM 84.0 °F 28.9 °F 14% 29.87 in 10.0 mi Calm Calm - N/A   Clear
1:56 PM 86.0 °F 28.0 °F 12% 29.84 in 10.0 mi Calm Calm - N/A   Clear
2:56 PM 88.0 °F 28.0 °F 12% 29.82 in 10.0 mi Calm Calm - N/A   Clear
3:56 PM 89.1 °F 28.9 °F 12% 29.81 in 10.0 mi WNW 8.1 mph - N/A   Clear
4:56 PM 87.1 °F 28.9 °F 12% 29.81 in 10.0 mi WNW 8.1 mph - N/A   Clear
5:56 PM 82.0 °F 28.9 °F 14% 29.81 in 10.0 mi NW 4.6 mph - N/A   Clear
6:56 PM 75.9 °F 28.0 °F 17% 29.82 in 10.0 mi WNW 5.8 mph - N/A   Clear
7:56 PM 73.0 °F 27.0 °F 18% 29.83 in 10.0 mi WNW 3.5 mph - N/A   Clear
8:56 PM 66.9 °F 26.1 °F 21% 29.85 in 10.0 mi Variable 3.5 mph - N/A   Clear
9:56 PM 69.1 °F 28.0 °F 22% 29.84 in 10.0 mi Calm Calm - N/A   Clear
10:56 PM 64.0 °F 27.0 °F 25% 29.85 in 10.0 mi Calm Calm - N/A   Clear
11:56 PM 61.0 °F 25.0 °F 25% 29.85 in 10.0 mi NE 9.2 mph - N/A   Clear